AFR617 KMIA-TFFR

Flight info

Callsign AFR617
Flight time 2h 41m
Altitude 37000
Route KLADA2 BITAC Y290 HAGIT/N0438F390 Y421 MEEGL DCT MODUX/N0359F230 R888 GORET GORET2A
Aircraft A320/M-SDE3FGHIRWY/LB1

Departure

Time 2026-04-24 05:32
Airport Miami International Airport (KMIA)

Arrival

Time 2026-04-24 08:13
Airport Maryse Condé International Airport (TFFR)
Time Latitude Longitude Altitude Speed Heading
2026-04-24 04:59 25.79824 -80.28269 15 ft 0 kts 177°
2026-04-24 05:11 25.79825 -80.28269 33 ft 1 kts 177°
2026-04-24 05:11 25.79849 -80.28269 17 ft 4 kts 185°
2026-04-24 05:12 25.79875 -80.28264 16 ft 4 kts 208°
2026-04-24 05:12 25.79890 -80.28246 18 ft 2 kts 266°
2026-04-24 05:12 25.79890 -80.28244 18 ft 0 kts 268°
2026-04-24 05:15 25.79890 -80.28267 15 ft 9 kts 268°
2026-04-24 05:15 25.79918 -80.28314 15 ft 7 kts 343°
2026-04-24 05:15 25.80003 -80.28323 16 ft 15 kts 347°
2026-04-24 05:16 25.80029 -80.28351 16 ft 0 kts 292°
2026-04-24 05:28 25.80029 -80.28352 15 ft 2 kts 292°
2026-04-24 05:28 25.80031 -80.28431 15 ft 19 kts 267°
2026-04-24 05:28 25.80025 -80.28608 16 ft 24 kts 267°
2026-04-24 05:29 25.80016 -80.28799 17 ft 26 kts 267°
2026-04-24 05:29 25.80008 -80.29005 16 ft 28 kts 268°
2026-04-24 05:29 25.79998 -80.29223 16 ft 29 kts 267°
2026-04-24 05:29 25.79990 -80.29435 15 ft 28 kts 268°
2026-04-24 05:30 25.79981 -80.29629 14 ft 14 kts 265°
2026-04-24 05:30 25.79978 -80.29699 14 ft 8 kts 269°
2026-04-24 05:30 25.80005 -80.29757 15 ft 9 kts 329°
2026-04-24 05:30 25.80072 -80.29738 14 ft 12 kts 46°
2026-04-24 05:31 25.80091 -80.29637 14 ft 21 kts 87°
2026-04-24 05:31 25.80109 -80.29204 17 ft 92 kts 87°
2026-04-24 05:31 25.80148 -80.28268 14 ft 148 kts 87°
2026-04-24 05:31 25.80191 -80.27038 496 ft 158 kts 87°
2026-04-24 05:32 25.80172 -80.25819 1254 ft 158 kts 102°
2026-04-24 05:32 25.79765 -80.24674 1943 ft 164 kts 114°
2026-04-24 05:32 25.79237 -80.23457 2318 ft 186 kts 115°
2026-04-24 05:32 25.78632 -80.22092 2614 ft 210 kts 115°
2026-04-24 05:33 25.77941 -80.20548 3036 ft 235 kts 115°
2026-04-24 05:33 25.77177 -80.18853 3613 ft 253 kts 116°
2026-04-24 05:33 25.76373 -80.17109 4455 ft 261 kts 117°
2026-04-24 05:34 25.74588 -80.13481 6193 ft 274 kts 117°
2026-04-24 05:34 25.73657 -80.11611 7001 ft 280 kts 117°
2026-04-24 05:34 25.72890 -80.09601 7822 ft 286 kts 110°
2026-04-24 05:34 25.72194 -80.07517 8659 ft 291 kts 110°
2026-04-24 05:35 25.71490 -80.05393 9496 ft 296 kts 111°
2026-04-24 05:35 25.70774 -80.03226 10261 ft 305 kts 112°
2026-04-24 05:35 25.70014 -80.00933 10545 ft 329 kts 111°
2026-04-24 05:35 25.69207 -79.98500 11062 ft 342 kts 112°
2026-04-24 05:36 25.68379 -79.95997 11810 ft 347 kts 111°
2026-04-24 05:36 25.67541 -79.93467 12593 ft 351 kts 111°
2026-04-24 05:36 25.66693 -79.90912 13366 ft 355 kts 111°
2026-04-24 05:36 25.65832 -79.88325 14087 ft 360 kts 111°
2026-04-24 05:37 25.64962 -79.85710 14738 ft 364 kts 112°
2026-04-24 05:37 25.64080 -79.83064 15404 ft 367 kts 112°
2026-04-24 05:37 25.63190 -79.80391 16073 ft 371 kts 112°
2026-04-24 05:37 25.62303 -79.77732 16704 ft 374 kts 112°
2026-04-24 05:38 25.61395 -79.75012 17341 ft 378 kts 112°
2026-04-24 05:38 25.60476 -79.72260 17991 ft 382 kts 112°
2026-04-24 05:38 25.59547 -79.69484 18590 ft 386 kts 113°
2026-04-24 05:38 25.58572 -79.66698 19130 ft 390 kts 114°
2026-04-24 05:39 25.57551 -79.63894 19633 ft 394 kts 114°
2026-04-24 05:39 25.56501 -79.61069 20157 ft 399 kts 115°
2026-04-24 05:39 25.55439 -79.58219 20672 ft 403 kts 114°
2026-04-24 05:39 25.54367 -79.55335 21196 ft 407 kts 114°
2026-04-24 05:40 25.53292 -79.52417 21709 ft 410 kts 114°
2026-04-24 05:40 25.52214 -79.49474 22213 ft 414 kts 114°
2026-04-24 05:40 25.51127 -79.46508 22712 ft 418 kts 114°
2026-04-24 05:40 25.50031 -79.43516 23209 ft 421 kts 114°
2026-04-24 05:41 25.48929 -79.40505 23693 ft 424 kts 114°
2026-04-24 05:41 25.47817 -79.37469 24103 ft 427 kts 114°
2026-04-24 05:41 25.46696 -79.34415 24499 ft 430 kts 114°
2026-04-24 05:41 25.45560 -79.31328 24901 ft 433 kts 114°
2026-04-24 05:42 25.44422 -79.28237 25293 ft 436 kts 114°
2026-04-24 05:42 25.43276 -79.25117 25676 ft 439 kts 114°
2026-04-24 05:42 25.42122 -79.21979 26059 ft 442 kts 114°
2026-04-24 05:42 25.40956 -79.18818 26435 ft 445 kts 114°
2026-04-24 05:43 25.39793 -79.15671 26802 ft 448 kts 115°
2026-04-24 05:43 25.38611 -79.12473 27161 ft 451 kts 115°
2026-04-24 05:43 25.37416 -79.09246 27521 ft 454 kts 115°
2026-04-24 05:43 25.36214 -79.06006 27872 ft 457 kts 115°
2026-04-24 05:44 25.35004 -79.02744 28239 ft 460 kts 115°
2026-04-24 05:44 25.33785 -78.99458 28585 ft 463 kts 115°
2026-04-24 05:44 25.32558 -78.96151 28943 ft 466 kts 115°
2026-04-24 05:44 25.31324 -78.92826 29292 ft 469 kts 115°
2026-04-24 05:45 25.30082 -78.89480 29627 ft 472 kts 115°
2026-04-24 05:45 25.28836 -78.86119 29965 ft 474 kts 115°
2026-04-24 05:45 25.27579 -78.82735 30263 ft 477 kts 115°
2026-04-24 05:45 25.26331 -78.79378 30542 ft 480 kts 115°
2026-04-24 05:46 25.25059 -78.75964 30813 ft 482 kts 115°
2026-04-24 05:46 25.23762 -78.72494 31075 ft 484 kts 115°
2026-04-24 05:46 25.22490 -78.69094 31337 ft 487 kts 116°
2026-04-24 05:46 25.21195 -78.65626 31595 ft 488 kts 116°
2026-04-24 05:47 25.19902 -78.62160 31948 ft 488 kts 116°
2026-04-24 05:47 25.18605 -78.58696 32255 ft 489 kts 116°
2026-04-24 05:47 25.17283 -78.55232 32572 ft 489 kts 117°
2026-04-24 05:47 25.15910 -78.51793 32928 ft 489 kts 118°
2026-04-24 05:48 25.14500 -78.48380 33292 ft 488 kts 119°
2026-04-24 05:48 25.13074 -78.44987 33669 ft 487 kts 119°
2026-04-24 05:48 25.11647 -78.41597 34047 ft 486 kts 119°
2026-04-24 05:48 25.10233 -78.38212 34366 ft 486 kts 119°
2026-04-24 05:49 25.08827 -78.34812 34637 ft 487 kts 118°
2026-04-24 05:49 25.07430 -78.31408 34884 ft 488 kts 118°
2026-04-24 05:49 25.06037 -78.27998 35134 ft 488 kts 118°
2026-04-24 05:49 25.04640 -78.24582 35376 ft 489 kts 118°
2026-04-24 05:50 25.03236 -78.21162 35613 ft 490 kts 118°
2026-04-24 05:50 25.01823 -78.17731 35848 ft 491 kts 118°
2026-04-24 05:50 25.00409 -78.14303 36073 ft 491 kts 118°
2026-04-24 05:50 24.99010 -78.10918 36293 ft 492 kts 118°
2026-04-24 05:51 24.97585 -78.07478 36505 ft 493 kts 118°
2026-04-24 05:51 24.96159 -78.04042 36721 ft 493 kts 118°
2026-04-24 05:51 24.94728 -78.00595 36926 ft 494 kts 118°
2026-04-24 05:51 24.93297 -77.97146 37024 ft 494 kts 118°
2026-04-24 05:52 24.90457 -77.90286 37032 ft 490 kts 119°
2026-04-24 05:52 24.87625 -77.83461 37032 ft 489 kts 119°
2026-04-24 05:53 24.84792 -77.76661 37070 ft 489 kts 119°
2026-04-24 05:53 24.81968 -77.69899 37071 ft 489 kts 119°
2026-04-24 05:54 24.79131 -77.63100 37048 ft 489 kts 119°
2026-04-24 05:54 24.76281 -77.56296 37037 ft 489 kts 119°
2026-04-24 05:55 24.73378 -77.49535 37033 ft 488 kts 121°
2026-04-24 05:55 24.70324 -77.42875 37025 ft 487 kts 122°
2026-04-24 05:56 24.67225 -77.36247 37034 ft 488 kts 122°
2026-04-24 05:56 24.64670 -77.30710 37029 ft 488 kts 121°
2026-04-24 05:57 24.61625 -77.24049 37033 ft 488 kts 121°
2026-04-24 05:57 24.58582 -77.17380 37037 ft 488 kts 122°
2026-04-24 05:58 24.55516 -77.10712 37034 ft 488 kts 122°
2026-04-24 05:58 24.52446 -77.04057 37047 ft 488 kts 122°
2026-04-24 05:59 24.49377 -76.97391 37050 ft 488 kts 122°
2026-04-24 05:59 24.46315 -76.90744 37044 ft 488 kts 122°
2026-04-24 06:00 24.43242 -76.84098 37026 ft 488 kts 122°
2026-04-24 06:00 24.40163 -76.77448 37020 ft 488 kts 123°
2026-04-24 06:01 24.37082 -76.70802 37020 ft 488 kts 123°
2026-04-24 06:01 24.33999 -76.64171 37026 ft 488 kts 123°
2026-04-24 06:02 24.30930 -76.57571 37032 ft 488 kts 123°
2026-04-24 06:02 24.27844 -76.50944 37033 ft 488 kts 123°
2026-04-24 06:03 24.24748 -76.44305 37034 ft 488 kts 123°
2026-04-24 06:03 24.21657 -76.37678 37038 ft 489 kts 123°
2026-04-24 06:04 24.18554 -76.31050 37041 ft 488 kts 123°
2026-04-24 06:04 24.15449 -76.24433 37041 ft 488 kts 123°
2026-04-24 06:05 24.12349 -76.17822 37040 ft 488 kts 123°
2026-04-24 06:05 24.09273 -76.11249 37034 ft 488 kts 123°
2026-04-24 06:06 24.06176 -76.04631 37028 ft 488 kts 124°
2026-04-24 06:06 24.03061 -75.98027 37026 ft 488 kts 124°
2026-04-24 06:07 23.99939 -75.91430 37028 ft 488 kts 124°
2026-04-24 06:07 23.96820 -75.84825 37026 ft 488 kts 124°
2026-04-24 06:08 23.93713 -75.78227 37013 ft 488 kts 124°
2026-04-24 06:08 23.90596 -75.71623 37013 ft 488 kts 124°
2026-04-24 06:09 23.87466 -75.65031 37015 ft 488 kts 124°
2026-04-24 06:09 23.84354 -75.58484 37018 ft 489 kts 124°
2026-04-24 06:10 23.81193 -75.51855 37018 ft 489 kts 124°
2026-04-24 06:11 23.76505 -75.42016 37010 ft 489 kts 124°
2026-04-24 06:11 23.73371 -75.35433 37015 ft 489 kts 124°
2026-04-24 06:12 23.70229 -75.28856 37022 ft 489 kts 124°
2026-04-24 06:12 23.67072 -75.22253 37027 ft 489 kts 124°
2026-04-24 06:13 23.63922 -75.15665 37006 ft 490 kts 125°
2026-04-24 06:13 23.60785 -75.09132 37016 ft 490 kts 125°
2026-04-24 06:14 23.57612 -75.02548 37017 ft 490 kts 126°
2026-04-24 06:14 23.54441 -74.95966 37021 ft 491 kts 126°
2026-04-24 06:15 23.51273 -74.89374 37021 ft 491 kts 126°
2026-04-24 06:15 23.48100 -74.82789 37022 ft 490 kts 126°
2026-04-24 06:16 23.44919 -74.76206 37023 ft 491 kts 126°
2026-04-24 06:16 23.41745 -74.69626 37026 ft 491 kts 126°
2026-04-24 06:17 23.38560 -74.63046 37029 ft 491 kts 126°
2026-04-24 06:17 23.35392 -74.56523 37029 ft 490 kts 126°
2026-04-24 06:18 23.32200 -74.49964 37027 ft 490 kts 126°
2026-04-24 06:18 23.29011 -74.43401 37025 ft 490 kts 126°
2026-04-24 06:19 23.25827 -74.36847 37006 ft 490 kts 126°
2026-04-24 06:19 23.22626 -74.30282 37004 ft 491 kts 126°
2026-04-24 06:20 23.19418 -74.23714 37014 ft 492 kts 126°
2026-04-24 06:20 23.16204 -74.17145 37017 ft 492 kts 126°
2026-04-24 06:21 23.13008 -74.10613 37020 ft 492 kts 126°
2026-04-24 06:21 23.09797 -74.04045 37023 ft 492 kts 126°
2026-04-24 06:22 23.06578 -73.97483 37022 ft 492 kts 127°
2026-04-24 06:22 23.03349 -73.90927 37023 ft 493 kts 127°
2026-04-24 06:23 23.00116 -73.84350 37027 ft 493 kts 127°
2026-04-24 06:23 22.96881 -73.77786 37028 ft 493 kts 127°
2026-04-24 06:24 22.93659 -73.71266 37027 ft 493 kts 127°
2026-04-24 06:24 22.90429 -73.64713 37017 ft 493 kts 127°
2026-04-24 06:25 22.87190 -73.58156 36991 ft 493 kts 127°
2026-04-24 06:25 22.83945 -73.51616 37000 ft 493 kts 127°
2026-04-24 06:26 22.80696 -73.45054 37011 ft 494 kts 127°
2026-04-24 06:26 22.77451 -73.38499 37032 ft 494 kts 127°
2026-04-24 06:27 22.74182 -73.31938 37031 ft 494 kts 127°
2026-04-24 06:27 22.70914 -73.25392 37017 ft 494 kts 127°
2026-04-24 06:28 22.67650 -73.18845 37023 ft 494 kts 127°
2026-04-24 06:28 22.64392 -73.12294 37024 ft 494 kts 127°
2026-04-24 06:29 22.61123 -73.05752 37023 ft 493 kts 127°
2026-04-24 06:29 22.57872 -72.99271 37024 ft 493 kts 127°
2026-04-24 06:30 22.54602 -72.92748 37020 ft 493 kts 127°
2026-04-24 06:30 22.51325 -72.86217 37017 ft 494 kts 128°
2026-04-24 06:31 22.48044 -72.79690 36986 ft 494 kts 127°
2026-04-24 06:31 22.44763 -72.73165 37009 ft 493 kts 127°
2026-04-24 06:32 22.41495 -72.66646 37022 ft 493 kts 127°
2026-04-24 06:32 22.38215 -72.60140 37016 ft 493 kts 127°
2026-04-24 06:33 22.34926 -72.53646 37023 ft 493 kts 127°
2026-04-24 06:33 22.31654 -72.47184 37019 ft 493 kts 127°
2026-04-24 06:34 22.28369 -72.40695 37020 ft 493 kts 127°
2026-04-24 06:34 22.25080 -72.34206 37022 ft 493 kts 127°
2026-04-24 06:35 22.21784 -72.27703 37015 ft 492 kts 127°
2026-04-24 06:35 22.18496 -72.21225 37005 ft 492 kts 127°
2026-04-24 06:36 22.15201 -72.14743 37007 ft 492 kts 127°
2026-04-24 06:36 22.11922 -72.08310 37009 ft 492 kts 127°
2026-04-24 06:37 22.08623 -72.01840 36985 ft 492 kts 127°
2026-04-24 06:37 22.05328 -71.95384 37004 ft 491 kts 127°
2026-04-24 06:38 22.02028 -71.88937 37005 ft 490 kts 127°
2026-04-24 06:38 21.98730 -71.82495 37016 ft 490 kts 127°
2026-04-24 06:39 21.95437 -71.76062 37019 ft 490 kts 127°
2026-04-24 06:39 21.92143 -71.69641 37008 ft 490 kts 127°
2026-04-24 06:40 21.88845 -71.63222 37017 ft 489 kts 127°
2026-04-24 06:40 21.85547 -71.56810 37016 ft 489 kts 127°
2026-04-24 06:41 21.82264 -71.50435 37005 ft 490 kts 127°
2026-04-24 06:41 21.78953 -71.44023 37006 ft 490 kts 128°
2026-04-24 06:42 21.75637 -71.37608 37006 ft 491 kts 128°
2026-04-24 06:42 21.72319 -71.31188 37010 ft 491 kts 127°
2026-04-24 06:43 21.69004 -71.24774 37013 ft 491 kts 128°
2026-04-24 06:43 21.65680 -71.18357 37000 ft 491 kts 128°
2026-04-24 06:44 21.62378 -71.11994 37009 ft 490 kts 128°
2026-04-24 06:44 21.59050 -71.05582 37007 ft 490 kts 128°
2026-04-24 06:45 21.55113 -70.99798 37010 ft 474 kts 141°
2026-04-24 06:45 21.50796 -70.94460 37009 ft 473 kts 141°
2026-04-24 06:46 21.47203 -70.90023 37013 ft 474 kts 141°
2026-04-24 06:46 21.42880 -70.84671 37001 ft 474 kts 141°
2026-04-24 06:47 21.38566 -70.79333 37004 ft 474 kts 141°
2026-04-24 06:47 21.34246 -70.73990 37005 ft 474 kts 141°
2026-04-24 06:48 21.29920 -70.68657 36979 ft 473 kts 140°
2026-04-24 06:48 21.25608 -70.63337 37005 ft 472 kts 140°
2026-04-24 06:49 21.21302 -70.58027 37018 ft 471 kts 140°
2026-04-24 06:49 21.16993 -70.52732 37011 ft 471 kts 140°
2026-04-24 06:50 21.12686 -70.47446 37006 ft 470 kts 140°
2026-04-24 06:50 21.08414 -70.42197 37007 ft 470 kts 140°
2026-04-24 06:51 21.04112 -70.36916 37006 ft 470 kts 140°
2026-04-24 06:51 20.99812 -70.31643 37005 ft 470 kts 141°
2026-04-24 06:52 20.95512 -70.26377 37001 ft 470 kts 141°
2026-04-24 06:52 20.91215 -70.21118 36985 ft 469 kts 140°
2026-04-24 06:53 20.86917 -70.15860 36997 ft 469 kts 140°
2026-04-24 06:53 20.82616 -70.10609 37002 ft 469 kts 140°
2026-04-24 06:54 20.78319 -70.05370 37003 ft 468 kts 140°
2026-04-24 06:54 20.74045 -70.00165 37003 ft 468 kts 140°
2026-04-24 06:55 20.69754 -69.94936 37005 ft 468 kts 140°
2026-04-24 06:55 20.65462 -69.89706 37003 ft 468 kts 140°
2026-04-24 06:56 20.61166 -69.84488 36998 ft 468 kts 140°
2026-04-24 06:56 20.56870 -69.79271 36979 ft 468 kts 140°
2026-04-24 06:57 20.52574 -69.74053 36968 ft 467 kts 140°
2026-04-24 06:57 20.48277 -69.68843 36981 ft 467 kts 140°
2026-04-24 06:58 20.43975 -69.63637 36981 ft 468 kts 140°
2026-04-24 06:58 20.39673 -69.58433 36988 ft 467 kts 140°
2026-04-24 06:59 20.35371 -69.53238 36990 ft 467 kts 140°
2026-04-24 06:59 20.31097 -69.48081 36983 ft 468 kts 140°
2026-04-24 07:00 20.26784 -69.42877 36978 ft 469 kts 140°
2026-04-24 07:00 20.22461 -69.37669 36986 ft 469 kts 140°
2026-04-24 07:01 20.18140 -69.32468 36989 ft 469 kts 140°
2026-04-24 07:01 20.13826 -69.27262 36985 ft 469 kts 140°
2026-04-24 07:02 20.09530 -69.22088 36986 ft 469 kts 140°
2026-04-24 07:02 20.05202 -69.16899 36988 ft 469 kts 140°
2026-04-24 07:03 20.00880 -69.11710 36982 ft 469 kts 140°
2026-04-24 07:03 19.96542 -69.06508 36982 ft 469 kts 140°
2026-04-24 07:04 19.92207 -69.01321 36985 ft 469 kts 140°
2026-04-24 07:04 19.87874 -68.96138 36983 ft 469 kts 140°
2026-04-24 07:05 19.83597 -68.90869 36946 ft 472 kts 138°
2026-04-24 07:05 19.79476 -68.85422 36949 ft 474 kts 136°
2026-04-24 07:06 19.75370 -68.79925 36965 ft 475 kts 137°
2026-04-24 07:06 19.71248 -68.74508 36977 ft 474 kts 137°
2026-04-24 07:07 19.67069 -68.69081 36984 ft 475 kts 137°
2026-04-24 07:07 19.60794 -68.60949 36988 ft 474 kts 137°
2026-04-24 07:08 19.56620 -68.55523 36990 ft 474 kts 137°
2026-04-24 07:08 19.52452 -68.50091 36990 ft 474 kts 137°
2026-04-24 07:09 19.48309 -68.44706 36992 ft 474 kts 137°
2026-04-24 07:09 19.44134 -68.39304 36964 ft 474 kts 137°
2026-04-24 07:10 19.39965 -68.33899 36981 ft 473 kts 137°
2026-04-24 07:10 19.35796 -68.28504 36983 ft 473 kts 137°
2026-04-24 07:11 19.31616 -68.23114 36984 ft 473 kts 137°
2026-04-24 07:11 19.27441 -68.17721 36980 ft 473 kts 137°
2026-04-24 07:12 19.23269 -68.12334 36981 ft 473 kts 137°
2026-04-24 07:12 19.19098 -68.06949 36982 ft 473 kts 137°
2026-04-24 07:13 19.14959 -68.01608 36984 ft 472 kts 137°
2026-04-24 07:13 19.10780 -67.96241 36982 ft 472 kts 137°
2026-04-24 07:14 19.06606 -67.90877 36967 ft 472 kts 137°
2026-04-24 07:14 19.02444 -67.85532 36977 ft 471 kts 137°
2026-04-24 07:15 18.98281 -67.80186 36982 ft 471 kts 137°
2026-04-24 07:15 18.94119 -67.74842 36984 ft 471 kts 137°
2026-04-24 07:16 18.89959 -67.69497 36985 ft 470 kts 137°
2026-04-24 07:16 18.85822 -67.64204 36980 ft 470 kts 137°
2026-04-24 07:17 18.81657 -67.58885 36977 ft 470 kts 137°
2026-04-24 07:17 18.77492 -67.53563 36975 ft 470 kts 137°
2026-04-24 07:18 18.73325 -67.48252 36977 ft 470 kts 137°
2026-04-24 07:18 18.69161 -67.42936 36961 ft 469 kts 137°
2026-04-24 07:19 18.65001 -67.37626 36968 ft 469 kts 137°
2026-04-24 07:19 18.60844 -67.32320 36975 ft 468 kts 137°
2026-04-24 07:20 18.56692 -67.27029 36982 ft 468 kts 137°
2026-04-24 07:20 18.52558 -67.21775 36978 ft 468 kts 137°
2026-04-24 07:21 18.48732 -67.16156 36975 ft 480 kts 123°
2026-04-24 07:21 18.46224 -67.09574 36977 ft 486 kts 115°
2026-04-24 07:22 18.43876 -67.02901 36976 ft 486 kts 116°
2026-04-24 07:22 18.41507 -66.96237 36982 ft 486 kts 116°
2026-04-24 07:23 18.39148 -66.89615 36986 ft 486 kts 116°
2026-04-24 07:23 18.36776 -66.82956 36986 ft 486 kts 116°
2026-04-24 07:24 18.34406 -66.76284 37001 ft 486 kts 116°
2026-04-24 07:24 18.32039 -66.69623 36995 ft 486 kts 116°
2026-04-24 07:25 18.29667 -66.62964 37000 ft 485 kts 116°
2026-04-24 07:25 18.27297 -66.56323 36974 ft 485 kts 116°
2026-04-24 07:26 18.24921 -66.49675 37004 ft 485 kts 116°
2026-04-24 07:26 18.22549 -66.43038 37007 ft 484 kts 116°
2026-04-24 07:27 18.20196 -66.36463 37002 ft 483 kts 116°
2026-04-24 07:27 18.17814 -66.29840 36998 ft 483 kts 116°
2026-04-24 07:28 18.15441 -66.23231 36989 ft 483 kts 116°
2026-04-24 07:28 18.13066 -66.16625 36995 ft 483 kts 116°
2026-04-24 07:29 18.10687 -66.10023 36998 ft 483 kts 116°
2026-04-24 07:29 18.08306 -66.03415 36995 ft 483 kts 116°
2026-04-24 07:30 18.05928 -65.96815 36994 ft 483 kts 116°
2026-04-24 07:30 18.03563 -65.90262 36990 ft 482 kts 116°
2026-04-24 07:31 18.01181 -65.83672 36989 ft 482 kts 116°
2026-04-24 07:31 17.98794 -65.77076 36989 ft 482 kts 116°
2026-04-24 07:32 17.96401 -65.70487 36989 ft 482 kts 116°
2026-04-24 07:32 17.94001 -65.63898 36992 ft 483 kts 116°
2026-04-24 07:33 17.91608 -65.57309 36992 ft 483 kts 116°
2026-04-24 07:33 17.89238 -65.50762 36994 ft 483 kts 116°
2026-04-24 07:34 17.86843 -65.44183 36990 ft 483 kts 116°
2026-04-24 07:34 17.84439 -65.37598 36992 ft 483 kts 116°
2026-04-24 07:35 17.82031 -65.31020 36988 ft 483 kts 116°
2026-04-24 07:35 17.79628 -65.24447 36987 ft 482 kts 116°
2026-04-24 07:36 17.77217 -65.17870 36972 ft 482 kts 115°
2026-04-24 07:36 17.75222 -65.12423 36989 ft 482 kts 116°
2026-04-24 07:37 17.72821 -65.05866 36997 ft 481 kts 115°
2026-04-24 07:37 17.70421 -64.99313 37000 ft 481 kts 116°
2026-04-24 07:38 17.68008 -64.92772 37000 ft 480 kts 116°
2026-04-24 07:38 17.65603 -64.86244 37001 ft 480 kts 116°
2026-04-24 07:39 17.63202 -64.79709 37004 ft 480 kts 116°
2026-04-24 07:39 17.60798 -64.73184 37004 ft 480 kts 116°
2026-04-24 07:40 17.58401 -64.66699 36999 ft 480 kts 116°
2026-04-24 07:40 17.55989 -64.60188 36997 ft 480 kts 116°
2026-04-24 07:41 17.53571 -64.53653 36999 ft 479 kts 116°
2026-04-24 07:41 17.51166 -64.47137 36991 ft 479 kts 116°
2026-04-24 07:42 17.48748 -64.40628 36990 ft 479 kts 116°
2026-04-24 07:42 17.46329 -64.34128 36982 ft 479 kts 116°
2026-04-24 07:43 17.43926 -64.27675 36987 ft 479 kts 116°
2026-04-24 07:43 17.41503 -64.21172 36984 ft 478 kts 116°
2026-04-24 07:44 17.39083 -64.14687 36989 ft 478 kts 116°
2026-04-24 07:44 17.36658 -64.08183 36984 ft 478 kts 116°
2026-04-24 07:45 17.34240 -64.01696 36986 ft 478 kts 116°
2026-04-24 07:45 17.31834 -63.95255 36992 ft 478 kts 116°
2026-04-24 07:46 17.29410 -63.88784 36990 ft 477 kts 116°
2026-04-24 07:46 17.26980 -63.82317 36984 ft 476 kts 116°
2026-04-24 07:47 17.24564 -63.75876 36988 ft 475 kts 116°
2026-04-24 07:47 17.22149 -63.69440 36995 ft 474 kts 116°
2026-04-24 07:48 17.19736 -63.63026 36991 ft 473 kts 116°
2026-04-24 07:48 17.17327 -63.56629 36991 ft 473 kts 116°
2026-04-24 07:49 17.14934 -63.50270 36982 ft 473 kts 116°
2026-04-24 07:49 17.12505 -63.43818 36959 ft 475 kts 116°
2026-04-24 07:50 17.10082 -63.37431 36523 ft 478 kts 116°
2026-04-24 07:50 17.08853 -63.34191 35810 ft 479 kts 116°
2026-04-24 07:50 17.07600 -63.30885 34791 ft 488 kts 116°
2026-04-24 07:51 17.06360 -63.27615 34069 ft 490 kts 116°
2026-04-24 07:51 17.05107 -63.24304 33378 ft 488 kts 116°
2026-04-24 07:51 17.03866 -63.21021 32741 ft 485 kts 116°
2026-04-24 07:51 17.02627 -63.17743 32133 ft 482 kts 115°
2026-04-24 07:52 17.01400 -63.14498 31555 ft 479 kts 115°
2026-04-24 07:52 17.00178 -63.11271 30995 ft 476 kts 115°
2026-04-24 07:52 16.98965 -63.08072 30454 ft 472 kts 114°
2026-04-24 07:52 16.97756 -63.04891 29903 ft 469 kts 114°
2026-04-24 07:53 16.96554 -63.01738 29299 ft 466 kts 114°
2026-04-24 07:53 16.95326 -62.98619 28739 ft 460 kts 116°
2026-04-24 07:53 16.94019 -62.95617 27854 ft 450 kts 118°
2026-04-24 07:53 16.92638 -62.92711 26944 ft 442 kts 120°
2026-04-24 07:54 16.91234 -62.89889 26098 ft 434 kts 121°
2026-04-24 07:54 16.89849 -62.87124 25559 ft 425 kts 120°
2026-04-24 07:54 16.88502 -62.84401 25055 ft 422 kts 120°
2026-04-24 07:54 16.87176 -62.81670 24540 ft 420 kts 119°
2026-04-24 07:55 16.85880 -62.78954 24019 ft 418 kts 119°
2026-04-24 07:55 16.84597 -62.76239 23560 ft 414 kts 119°
2026-04-24 07:55 16.83330 -62.73548 22964 ft 412 kts 119°
2026-04-24 07:55 16.82074 -62.70884 22507 ft 407 kts 118°
2026-04-24 07:56 16.80841 -62.68274 22039 ft 403 kts 118°
2026-04-24 07:56 16.79609 -62.65675 21636 ft 397 kts 118°
2026-04-24 07:56 16.78382 -62.63097 21142 ft 395 kts 118°
2026-04-24 07:56 16.77163 -62.60541 20673 ft 392 kts 118°
2026-04-24 07:57 16.75953 -62.58002 20224 ft 389 kts 118°
2026-04-24 07:57 16.74751 -62.55481 19785 ft 386 kts 118°
2026-04-24 07:57 16.73558 -62.52980 19353 ft 384 kts 118°
2026-04-24 07:57 16.72375 -62.50497 18931 ft 381 kts 118°
2026-04-24 07:58 16.71200 -62.48025 18499 ft 376 kts 118°
2026-04-24 07:58 16.70048 -62.45598 17684 ft 371 kts 118°
2026-04-24 07:58 16.68918 -62.43223 17174 ft 358 kts 118°
2026-04-24 07:58 16.67831 -62.40943 16769 ft 344 kts 118°
2026-04-24 07:59 16.66784 -62.38749 16367 ft 332 kts 118°
2026-04-24 07:59 16.65772 -62.36635 15985 ft 321 kts 118°
2026-04-24 07:59 16.64789 -62.34583 15611 ft 311 kts 118°
2026-04-24 07:59 16.63837 -62.32591 15256 ft 305 kts 117°
2026-04-24 08:00 16.62888 -62.30607 14892 ft 304 kts 117°
2026-04-24 08:00 16.61942 -62.28632 14543 ft 306 kts 117°
2026-04-24 08:00 16.61001 -62.26669 14183 ft 308 kts 117°
2026-04-24 08:00 16.60040 -62.24667 13814 ft 310 kts 117°
2026-04-24 08:01 16.59077 -62.22655 13404 ft 311 kts 117°
2026-04-24 08:01 16.58108 -62.20629 13025 ft 311 kts 117°
2026-04-24 08:01 16.57143 -62.18614 12640 ft 311 kts 117°
2026-04-24 08:01 16.55981 -62.16721 12262 ft 309 kts 130°
2026-04-24 08:02 16.54509 -62.15094 11862 ft 309 kts 135°
2026-04-24 08:02 16.53006 -62.13493 11483 ft 309 kts 135°
2026-04-24 08:02 16.51503 -62.11893 11080 ft 309 kts 135°
2026-04-24 08:02 16.50003 -62.10294 10670 ft 309 kts 135°
2026-04-24 08:03 16.48501 -62.08691 10267 ft 309 kts 135°
2026-04-24 08:03 16.47017 -62.07107 9864 ft 309 kts 135°
2026-04-24 08:03 16.45537 -62.05525 9633 ft 301 kts 135°
2026-04-24 08:03 16.44082 -62.03968 9235 ft 299 kts 135°
2026-04-24 08:04 16.42637 -62.02420 8830 ft 297 kts 134°
2026-04-24 08:04 16.41201 -62.00881 8457 ft 295 kts 134°
2026-04-24 08:04 16.39776 -61.99359 8071 ft 292 kts 134°
2026-04-24 08:04 16.38368 -61.97860 7547 ft 287 kts 134°
2026-04-24 08:05 16.36980 -61.96385 6992 ft 283 kts 134°
2026-04-24 08:05 16.35612 -61.94929 6468 ft 278 kts 134°
2026-04-24 08:05 16.34403 -61.93395 5960 ft 271 kts 121°
2026-04-24 08:05 16.33646 -61.91642 5524 ft 262 kts 107°
2026-04-24 08:06 16.33247 -61.89811 5301 ft 253 kts 101°
2026-04-24 08:06 16.32946 -61.88061 5233 ft 239 kts 101°
2026-04-24 08:06 16.32649 -61.86400 5140 ft 227 kts 101°
2026-04-24 08:06 16.32359 -61.84817 5039 ft 219 kts 101°
2026-04-24 08:07 16.32074 -61.83268 4948 ft 216 kts 101°
2026-04-24 08:07 16.31797 -61.81758 4852 ft 208 kts 102°
2026-04-24 08:07 16.31530 -61.80306 4759 ft 200 kts 102°
2026-04-24 08:07 16.31272 -61.78897 4688 ft 197 kts 102°
2026-04-24 08:08 16.31016 -61.77510 4513 ft 198 kts 101°
2026-04-24 08:08 16.30756 -61.76096 4257 ft 199 kts 102°
2026-04-24 08:08 16.30493 -61.74666 3988 ft 203 kts 102°
2026-04-24 08:09 16.29960 -61.71766 3429 ft 205 kts 102°
2026-04-24 08:09 16.29690 -61.70300 3147 ft 207 kts 102°
2026-04-24 08:09 16.29422 -61.68848 2858 ft 199 kts 101°
2026-04-24 08:09 16.29171 -61.67486 2604 ft 184 kts 101°
2026-04-24 08:10 16.28938 -61.66222 2356 ft 170 kts 101°
2026-04-24 08:10 16.28723 -61.65056 2126 ft 156 kts 101°
2026-04-24 08:10 16.28528 -61.63999 1911 ft 142 kts 101°
2026-04-24 08:10 16.28347 -61.63015 1718 ft 136 kts 101°
2026-04-24 08:11 16.28171 -61.62062 1525 ft 133 kts 100°
2026-04-24 08:11 16.27997 -61.61121 1345 ft 133 kts 100°
2026-04-24 08:11 16.27824 -61.60183 1158 ft 131 kts 100°
2026-04-24 08:11 16.27657 -61.59265 988 ft 130 kts 99°
2026-04-24 08:12 16.27494 -61.58328 797 ft 131 kts 99°
2026-04-24 08:12 16.27328 -61.57409 633 ft 131 kts 101°
2026-04-24 08:12 16.27145 -61.56475 466 ft 132 kts 101°
2026-04-24 08:12 16.26970 -61.55532 281 ft 132 kts 101°
2026-04-24 08:13 16.26789 -61.54590 89 ft 133 kts 101°
2026-04-24 08:13 16.26629 -61.53720 26 ft 94 kts 101°
2026-04-24 08:13 16.26559 -61.53339 28 ft 30 kts 101°
2026-04-24 08:13 16.26520 -61.53129 30 ft 30 kts 101°
2026-04-24 08:14 16.26540 -61.52993 30 ft 18 kts 23°
2026-04-24 08:14 16.26666 -61.52964 31 ft 20 kts 12°
2026-04-24 08:14 16.26804 -61.52936 31 ft 15 kts 12°
2026-04-24 08:14 16.26845 -61.52850 32 ft 14 kts 96°
2026-04-24 08:15 16.26904 -61.52827 32 ft 10 kts
2026-04-24 08:15 16.26936 -61.52824 31 ft 0 kts